Regional Weather Roundup
Issued by NWS

Home | Current Version | Previous Version | Text Only | Print | Product List | Glossary On
Versions: 1 2 3 4 5 6 7 8 9 10 11 12 13 14 15 16 17 18 19 20 21 22 23 24 25 26 27 28 29 30 31 32 33 34 35 36 37 38 39 40 41 42 43 44 45 46 47 48 49 50
000
ASUS43 KLSX 250907
RWRMO

WEATHER SUMMARY FOR MISSOURI
NATIONAL WEATHER SERVICE SPRINGFIELD MO
300 AM CST SUN JAN 25 2015

NOTE: "FAIR" INDICATES FEW OR NO CLOUDS BELOW 12,000 FEET WITH NO
       SIGNIFICANT WEATHER AND/OR OBSTRUCTIONS TO VISIBILITY.
       CURRENT SKY AND/OR WEATHER CONDITIONS ARE NOT AVAILABLE FOR
       CHILLICOTHE AND FARMINGTON.

MOZ001>031-035>038-043-044-053-054-251000-
...NORTHERN AND WESTERN MISSOURI...

CITY           SKY/WX    TMP DP  RH WIND       PRES   REMARKS
KANSAS CTY INT DRIZZLE   45  41  86 W10       29.64S
KANSAS C DTWN  MOCLDY    48  41  76 W10       29.65S
LEE`S SUMMIT   MOCLDY    47  42  83 W9        29.65S
ST JOSEPH      CLOUDY    45  40  82 NW12      29.64R
CHILLICOTHE      N/A     45  42  89 W3        29.59F
KIRKSVILLE     LGT RAIN  40  38  93 SW3       29.58F

$$
MOZ066>068-077>081-088>096-101>105-251000-
...SOUTHWEST MISSOURI...

CITY           SKY/WX    TMP DP  RH WIND       PRES   REMARKS
SPRINGFIELD    CLOUDY    49  32  52 SW9       29.69F
JOPLIN         CLOUDY    49  32  52 SW14      29.72S

$$
MOZ032>034-039>042-045>050-055>058-069>072-251000-
...CENTRAL MISSOURI...

CITY           SKY/WX    TMP DP  RH WIND       PRES   REMARKS
COLUMBIA       LGT RAIN  44  42  93 SW7       29.62F
JEFFERSON CITY LGT RAIN  47  42  83 SW5       29.63F
ROLLA          CLOUDY    43  38  82 SW8       29.64F
SEDALIA        CLOUDY    47  43  86 W13       29.63F
WHITEMAN AFB   CLOUDY    46  43  91 W9        29.63S
WARRENSBURG    CLOUDY    45  41  87 W8        29.64F
OSAGE BEACH    CLOUDY    46  36  66 SW9       29.65F

$$
MOZ051-052-059>065-251000-
...EAST CENTRAL MISSOURI...

CITY           SKY/WX    TMP DP  RH WIND       PRES   REMARKS
ST LOUIS INTL  LGT RAIN  49  37  63 SW10      29.66R
SPIRIT OF STL  LGT RAIN  48  38  68 SW13      29.64F
ST CHARLES     CLOUDY    48  36  63 SW10      29.63F

$$
MOZ072>076-082>087-097>100-106>115-251000-
...SOUTH CENTRAL AND SOUTHEAST MISSOURI...

CITY           SKY/WX    TMP DP  RH WIND       PRES   REMARKS
CAPE GIRARDEAU CLOUDY    42  33  70 S5        29.73F
FARMINGTON     CLOUDY    48  30  49 MISG      29.70F
POPLAR BLUFF   CLOUDY    39  32  76 SW7       29.73F
WEST PLAINS    CLOUDY    45  31  58 SW8       29.72F

$$


USA.gov is the U.S. government's official web portal to all federal, state and local government web resources and services.